Weather History for Athens, OH

Change the Weather History Date:

Sunday, December 8, 2013

  Actual Average (KPKB) Record (KPKB)
Temperature  
Mean Temperature 26 °F 37 °F  
Max Temperature 32 °F 45 °F 72 °F (1966)
Min Temperature 19 °F 29 °F 7 °F (1977)
Degree Days  
Heating Degree Days 40 28  
Month to date heating degree days 215  
Since 1 July heating degree days 1200  
Moisture  
Dew Point 23 °F    
Average Humidity 88    
Maximum Humidity 98    
Minimum Humidity 79    
Precipitation  
Precipitation 0.00 in 0.10 in 0.96 in (2009)
Month to date precipitation 0.84  
Year to date precipitation 38.93  
Sea Level Pressure  
Sea Level Pressure 30.27 in    
Wind  
Wind Speed 6 mph (NE)    
Max Wind Speed 12 mph    
Max Gust Speed -    
Visibility 6 miles    
Events Snow    
T = Trace of Precipitation, MM = Missing Value Source: NWS Daily Summary

Daily Weather History Graph

Daily Weather History Graph

Search for Another Location

Airport:

Trip Planner

Search our weather history database for the weather conditions in past years. The results will help you decide how hot, cold, wet, or windy it might be!

Date:

Astronomy

Dec. 08, 2013 Rise Set
Actual Time 7:36 AM EST 5:05 PM EST
Civil Twilight 7:06 AM EST 5:35 PM EST
Nautical Twilight 6:32 AM EST 6:09 PM EST
Astronomical Twilight 6:00 AM EST 6:41 PM EST
Moon 11:57 AM EST (12/8) 11:51 PM EST (12/8)
Length of Visible Light 10h 29m
Length of Day
9h 29m
Waxing Crescent, 40% of the Moon is Illuminated
Dec 8
Waxing Crescent
Dec 9
First Quarter
Dec 17
Full
Dec 25
Last Quarter
Jan 1
New

Hourly Weather History & Observations

Time (EST) Temp. Windchill Dew Point Humidity Pressure Visibility Wind Dir Wind Speed Gust Speed Precip Events Conditions
12:15 AM 19.2 °F 14.1 °F 14.9 °F 83% 30.55 in 10.0 mi NNE 3.5 mph - N/A   Clear
12:35 AM 19.6 °F 13.0 °F 15.6 °F 85% 30.53 in 10.0 mi NNE 4.6 mph - N/A   Clear
12:55 AM 20.3 °F 13.8 °F 15.8 °F 83% 30.52 in 10.0 mi NE 4.6 mph - N/A   Clear
1:15 AM 20.8 °F 12.1 °F 16.0 °F 81% 30.51 in 10.0 mi NE 6.9 mph - N/A   Clear
1:35 AM 21.0 °F 12.4 °F 16.3 °F 82% 30.49 in 10.0 mi NE 6.9 mph - N/A   Clear
1:55 AM 21.2 °F 14.9 °F 16.3 °F 82% 30.50 in 10.0 mi ENE 4.6 mph - N/A   Clear
2:15 AM 21.9 °F 13.4 °F 16.3 °F 79% 30.50 in 10.0 mi ENE 6.9 mph - N/A   Clear
2:35 AM 22.1 °F 12.0 °F 16.7 °F 80% 30.46 in 10.0 mi ENE 9.2 mph - N/A   Clear
2:55 AM 22.1 °F 13.7 °F 16.3 °F 79% 30.49 in 10.0 mi NE 6.9 mph - N/A   Clear
3:15 AM 22.1 °F 12.0 °F 16.7 °F 80% 30.47 in 10.0 mi NE 9.2 mph - N/A   Scattered Clouds
3:35 AM 22.3 °F 13.0 °F 16.9 °F 80% 30.46 in 10.0 mi ENE 8.1 mph - N/A   Overcast
3:55 AM 22.5 °F 14.1 °F 17.1 °F 80% 30.44 in 10.0 mi NE 6.9 mph - N/A   Overcast
4:15 AM 22.6 °F 14.3 °F 17.2 °F 80% 30.44 in 10.0 mi NNE 6.9 mph - N/A   Overcast
4:35 AM 22.6 °F 13.4 °F 17.4 °F 80% 30.43 in 10.0 mi NE 8.1 mph - N/A   Overcast
4:55 AM 22.5 °F 13.2 °F 17.4 °F 81% 30.42 in 10.0 mi NNE 8.1 mph - N/A   Overcast
5:15 AM 22.6 °F 11.3 °F 17.6 °F 81% 30.41 in 10.0 mi NE 11.5 mph - N/A   Mostly Cloudy
5:35 AM 22.8 °F 13.6 °F 17.6 °F 80% 30.42 in 10.0 mi ENE 8.1 mph - N/A   Mostly Cloudy
5:55 AM 22.8 °F 12.9 °F 18.1 °F 82% 30.40 in 10.0 mi NE 9.2 mph - N/A   Overcast
6:15 AM 23.0 °F 14.7 °F 18.1 °F 82% 30.41 in 10.0 mi ENE 6.9 mph - N/A   Overcast
6:35 AM 23.0 °F 13.1 °F 18.3 °F 82% 30.40 in 7.0 mi ENE 9.2 mph - N/A Snow Light Snow
6:55 AM 23.4 °F 15.2 °F 19.2 °F 84% 30.39 in 5.0 mi ENE 6.9 mph - N/A Snow Light Snow
7:15 AM 23.7 °F 14.0 °F 19.4 °F 84% 30.37 in 10.0 mi ENE 9.2 mph - N/A   Overcast
7:35 AM 23.9 °F 15.0 °F 19.4 °F 83% 30.36 in 10.0 mi ENE 8.1 mph - N/A   Overcast
7:55 AM 24.6 °F 16.7 °F 19.9 °F 82% 30.36 in 10.0 mi ENE 6.9 mph - N/A   Overcast
8:15 AM 24.6 °F 15.1 °F 19.9 °F 82% 30.35 in 10.0 mi ENE 9.2 mph - N/A   Overcast
8:35 AM 24.6 °F 15.8 °F 20.3 °F 84% 30.35 in 4.0 mi ENE 8.1 mph - N/A Snow Light Snow
8:55 AM 24.6 °F 15.8 °F 21.0 °F 86% 30.35 in 2.5 mi NE 8.1 mph - N/A Snow Light Snow
9:15 AM 24.6 °F 15.8 °F 21.0 °F 86% 30.35 in 2.5 mi NE 8.1 mph - N/A Snow Light Snow
9:35 AM 24.8 °F 15.3 °F 21.6 °F 87% 30.34 in 2.0 mi NE 9.2 mph - N/A Snow Light Snow
9:55 AM 24.8 °F 15.3 °F 22.1 °F 89% 30.35 in 1.8 mi NE 9.2 mph - N/A Snow Light Snow
10:15 AM 24.8 °F 14.0 °F 22.3 °F 90% 30.33 in 0.8 mi NE 11.5 mph - N/A Snow Light Snow
10:35 AM 25.3 °F 16.0 °F 22.8 °F 90% 30.32 in 1.2 mi NE 9.2 mph - N/A Snow Light Snow
11:15 AM 25.7 °F 16.4 °F 22.6 °F 88% 30.32 in 1.2 mi NNE 9.2 mph - N/A Snow Light Snow
11:35 AM 25.5 °F 16.9 °F 23.0 °F 90% 30.32 in 1.0 mi NE 8.1 mph - N/A Snow Light Snow
11:55 AM 25.7 °F 16.4 °F 23.0 °F 89% 30.31 in 4.0 mi NE 9.2 mph - N/A Snow Light Snow
12:15 PM 26.2 °F 16.4 °F 23.5 °F 90% 30.27 in 2.0 mi NE 10.4 mph - N/A Snow Light Snow
12:35 PM 26.6 °F 18.2 °F 23.7 °F 89% 30.26 in 4.0 mi NE 8.1 mph - N/A Snow Light Snow
12:55 PM 27.1 °F 18.9 °F 23.9 °F 88% 30.24 in 2.5 mi ENE 8.1 mph - N/A Snow Light Snow
1:15 PM 27.5 °F 20.2 °F 24.3 °F 88% 30.23 in 4.0 mi NE 6.9 mph - N/A Snow Light Snow
1:35 PM 27.5 °F 21.1 °F 24.6 °F 89% 30.22 in 10.0 mi NE 5.8 mph - N/A   Overcast
1:55 PM 28.2 °F 21.0 °F 25.2 °F 88% 30.20 in 10.0 mi NE 6.9 mph - N/A Snow Light Snow
2:15 PM 28.4 °F 20.4 °F 25.5 °F 89% 30.18 in 10.0 mi ENE 8.1 mph - N/A   Overcast
2:35 PM 28.9 °F 21.1 °F 26.1 °F 89% 30.18 in 10.0 mi NE 8.1 mph - N/A   Overcast
2:55 PM 28.9 °F 21.1 °F 26.2 °F 90% 30.17 in 10.0 mi NE 8.1 mph - N/A   Overcast
3:15 PM 28.9 °F 21.1 °F 26.4 °F 90% 30.17 in 10.0 mi NE 8.1 mph - N/A   Overcast
3:35 PM 28.9 °F 19.8 °F 26.4 °F 90% 30.15 in 10.0 mi ENE 10.4 mph - N/A   Overcast
3:55 PM 29.1 °F 20.6 °F 26.6 °F 90% 30.15 in 10.0 mi NE 9.2 mph - N/A   Overcast
4:15 PM 29.1 °F 22.1 °F 27.0 °F 92% 30.15 in 7.0 mi ENE 6.9 mph - N/A   Overcast
4:35 PM 29.3 °F 25.6 °F 27.3 °F 92% 30.15 in 7.0 mi ENE 3.5 mph - N/A   Overcast
4:55 PM 29.3 °F 24.3 °F 27.5 °F 93% 30.14 in 7.0 mi NE 4.6 mph - N/A   Overcast
5:15 PM 29.3 °F 24.3 °F 27.5 °F 93% 30.14 in 10.0 mi ENE 4.6 mph - N/A   Overcast
5:35 PM 29.3 °F 24.3 °F 27.9 °F 94% 30.13 in 10.0 mi ENE 4.6 mph - N/A   Overcast
5:55 PM 29.7 °F 22.8 °F 28.0 °F 94% 30.11 in 10.0 mi ENE 6.9 mph - N/A   Overcast
6:15 PM 29.8 °F 24.9 °F 28.2 °F 94% 30.11 in 10.0 mi ENE 4.6 mph - N/A   Overcast
6:35 PM 30.2 °F 26.7 °F 28.4 °F 93% 30.11 in 7.0 mi East 3.5 mph - N/A   Overcast
6:55 PM 30.2 °F 26.7 °F 28.8 °F 94% 30.11 in 5.0 mi East 3.5 mph - N/A   Overcast
7:15 PM 30.7 °F - 29.3 °F 94% 30.11 in 3.0 mi Calm Calm - N/A   Overcast
7:35 PM 30.7 °F - 29.3 °F 94% 30.10 in 3.0 mi Calm Calm - N/A   Overcast
7:55 PM 30.9 °F - 29.7 °F 95% 30.10 in 2.0 mi Calm Calm - N/A   Overcast
8:15 PM 30.9 °F - 29.8 °F 96% 30.09 in 2.5 mi Calm Calm - N/A   Overcast
8:35 PM 31.1 °F 27.7 °F 30.0 °F 96% 30.08 in 2.5 mi ENE 3.5 mph - N/A   Overcast
8:55 PM 31.1 °F - 30.2 °F 96% 30.06 in 2.5 mi Calm Calm - N/A   Overcast
9:15 PM 31.1 °F - 30.2 °F 96% 30.06 in 2.5 mi Calm Calm - N/A   Overcast
9:35 PM 31.5 °F - 30.6 °F 96% 30.06 in 2.0 mi Calm Calm - N/A   Overcast
9:55 PM 31.5 °F - 30.6 °F 96% 30.06 in 1.5 mi Calm Calm - N/A   Overcast
10:15 PM 31.6 °F - 30.9 °F 97% 30.05 in 1.0 mi Calm Calm - N/A   Overcast
10:35 PM 31.8 °F - 31.1 °F 97% 30.04 in 1.0 mi Calm Calm - N/A   Overcast
10:55 PM 32.0 °F - 31.3 °F 97% 30.03 in 1.0 mi Calm Calm - N/A   Overcast
11:15 PM 32.0 °F - 31.5 °F 98% 30.02 in 1.2 mi Calm Calm - N/A   Overcast
11:35 PM 32.0 °F - 31.5 °F 98% 30.02 in 1.0 mi Calm Calm - N/A   Overcast
11:55 PM 32.0 °F - 31.1 °F 96% 30.01 in 0.8 mi Calm Calm - N/A   Overcast